| Position | Bib # | Name | Chip Time | Gun Time | Pace | City | State | Age Rank |
|---|---|---|---|---|---|---|---|---|
| DIVISION: 5K | ||||||||
| 1 | 153 | PATTERSON, HAYDEN | 18:30.79 | 18:30.00 | 5:58 | KEENE ST | NY | 1 Overall Male |
| 2 | 218 | WILK, CHANCE | 18:38.25 | 18:37.47 | 6:00 | BURNT HILLS | NY | 1 M-18 to 25 |
| 3 | 216 | WILK, BRYCE | 18:50.50 | 18:50.33 | 6:05 | SPOTSY | VA | 1 M-26 to 32 |
| 4 | 4 | Bailey, Ted | 19:54.72 | 19:56.03 | 6:26 | Mineral | VA | 2 M-18 to 25 |
| 5 | 54 | Foster, Robby` | 22:11.14 | 22:11.28 | 7:09 | Fredericksburg | VA | 1 M-9 to 13 |
| 6 | 214 | WHITNEY, MARIE | 22:30.41 | 22:30.55 | 7:15 | JAFFREY | NH | 1 Overall Female |
| 7 | 215 | WICK, RILEY | 22:58.67 | 22:58.86 | 7:25 | BURNT HILLS | NY | 1 F-18 to 25 |
| 8 | 148 | O'Neill, Kerry | 23:38.56 | 23:39.65 | 7:38 | Fredericksburg | VA | 1 M-40 to 98 |
| 9 | 241 | Sullivan, Mason | 23:53.31 | 23:58.23 | 7:44 | Beaverdam | VA | 1 M-14 to 17 |
| 10 | 230 | Kirsch, Thomas | 24:00.02 | 24:01.63 | 7:45 | SPOTSY | VA | 3 M-18 to 25 |
| 11 | 169 | Reifenberg, John | 24:07.97 | 24:10.15 | 7:48 | Spotsylvania | VA | 4 M-18 to 25 |
| 12 | 76 | Hatcher, Hunter | 24:09.04 | 24:10.88 | 7:48 | Spotsylvania | VA | 5 M-18 to 25 |
| 13 | 158 | Peterson, Allen | 24:28.74 | 24:34.16 | 7:55 | Spotsylvania | VA | 1 M-33 to 39 |
| 14 | 180 | Schmitt, Brian | 25:09.42 | 25:09.29 | 8:07 | Hampton | VA | 2 M-40 to 98 |
| 15 | 225 | Woodard, Eric | 26:14.29 | 26:16.64 | 8:28 | Spotsylvania | VA | 2 M-14 to 17 |
| 16 | 149 | O'Neill, Spencer | 26:43.93 | 26:45.34 | 8:38 | Fredericksburg | VA | 3 M-14 to 17 |
| 17 | 8 | BLACKWELL, TRISH | 26:45.51 | 26:49.00 | 8:39 | RUTHER GLEN | VA | 1 F-26 to 32 |
| 18 | 202 | SYNAN, BRANDEN | 26:44.86 | 26:49.00 | 8:39 | RUTHER GLEN | VA | 2 M-26 to 32 |
| 19 | 177 | Saunders, Riley | 27:10.51 | 27:13.62 | 8:47 | Spotsylvania | VA | 4 M-14 to 17 |
| 20 | 101 | KELLY, JESSICA | 27:18.85 | 27:19.47 | 8:49 | SPOTSY | VA | 2 F-26 to 32 |
| 21 | 124 | Luttrell, Lauren | 27:37.52 | 27:40.20 | 8:55 | Spotsylvana | VA | 2 F-18 to 25 |
| 22 | 106 | KENNEDY, STAN | 27:34.18 | 27:43.70 | 8:56 | FRED | VA | 6 M-18 to 25 |
| 23 | 78 | Hennessy, Theodore | 27:43.97 | 27:48.85 | 8:58 | Spotsylvania | VA | 2 M-33 to 39 |
| 24 | 213 | WHITER, LAUREN | 27:54.15 | 27:59.04 | 9:02 | FRED | VA | 1 F-33 to 39 |
| 25 | 63 | GOVEA, MITCHELL | 28:14.76 | 28:14.91 | 9:06 | FRED | VA | 7 M-18 to 25 |
| 26 | 175 | Saunders, Logan | 28:16.62 | 28:19.72 | 9:08 | Spotsylvania | VA | 8 M-18 to 25 |
| 27 | 217 | WILK, CAROLYN | 28:21.07 | 28:21.68 | 9:09 | BURNT HILLS | NY | 1 F-40 to 98 |
| 28 | 42 | Davis, Theron | 28:38.33 | 28:45.40 | 9:16 | Mineral | VA | 9 M-18 to 25 |
| 29 | 105 | KENNEDY, NATHAN | 28:42.80 | 28:45.47 | 9:16 | PARTLOW | VA | 5 M-14 to 17 |
| 30 | 253 | Heden, Cadence | 28:32.74 | 28:45.82 | 9:16 | Fredericksburg | VA | 2 F-33 to 39 |
| 31 | 52 | FIELDING, NICHOLAS | 28:51.18 | 28:52.83 | 9:19 | FRED | VA | 2 M-9 to 13 |
| 32 | 141 | MYERS, ERIN | 28:15.70 | 28:59.64 | 9:21 | FRED | 3 F-33 to 39 | |
| 33 | 238 | Stewart, Jeff | 28:56.32 | 29:03.82 | 9:22 | SPOTSY | VA | 3 M-40 to 98 |
| 34 | 159 | Peterson, Stacey | 29:47.16 | 29:53.55 | 9:38 | Spotsylvania | VA | 3 F-26 to 32 |
| 35 | 85 | HOUCK JR, THOMAS | 29:52.91 | 29:55.32 | 9:39 | RUTHER GLEN | VA | 10 M-18 to 25 |
| 36 | 223 | Wilson, Christany | 29:38.40 | 29:57.21 | 9:40 | Fredericksburg | VA | 3 F-18 to 25 |
| 37 | 89 | HYLDAHL, NIKKI | 29:52.36 | 29:58.30 | 9:40 | FRED | VA | 2 F-40 to 98 |
| 38 | 222 | Williamson, Patricia | 29:52.92 | 29:58.61 | 9:40 | Fredericksburg | VA | 3 F-40 to 98 |
| 39 | 166 | puhera, lucille | 30:05.96 | 30:24.85 | 9:48 | fredericksburg | VA | 4 F-40 to 98 |
| 40 | 129 | Mahnker, Rebecca | 30:05.81 | 30:25.03 | 9:49 | Fredericksburg | VA | 5 F-40 to 98 |
| 41 | 104 | KENNEDY, CHRIS | 30:29.39 | 30:39.75 | 9:53 | PARTLOW | VA | 4 M-40 to 98 |
| 42 | 36 | CONOVER, JOHN | 30:39.31 | 30:46.12 | 9:55 | FRED | VA | 5 M-40 to 98 |
| 43 | 156 | Payne, Travis | 31:11.22 | 31:15.98 | 10:05 | Spotsylvania | VA | 11 M-18 to 25 |
| 44 | 176 | Saunders, Mitchell | 31:17.29 | 31:20.07 | 10:06 | Spotsylvania | VA | 6 M-14 to 17 |
| 45 | 209 | WALTMAN, JOHN | 31:17.32 | 31:20.26 | 10:06 | SPOTSY | VA | 12 M-18 to 25 |
| 46 | 2 | Allan, Kim | 31:21.41 | 31:25.06 | 10:08 | Fred | VA | 4 F-33 to 39 |
| 47 | 38 | Cormier, Dustin | 31:07.43 | 31:27.65 | 10:09 | Fredericksburg | VA | 3 M-26 to 32 |
| 48 | 160 | Petrie, Brian | 31:19.61 | 31:35.47 | 10:11 | Partlow | VA | 13 M-18 to 25 |
| 49 | 165 | PUGH, MEREDITH | 31:30.62 | 31:36.49 | 10:12 | FRED | VA | 1 F-14 to 17 |
| 50 | 82 | HOCKADAY, NICHOLAS | 31:38.31 | 31:40.13 | 10:13 | fredericksburg | VA | 7 M-14 to 17 |
| 51 | 184 | SHELTON, CASEY | 31:46.74 | 31:52.36 | 10:17 | STAFFORD | VA | 4 F-26 to 32 |
| 52 | 122 | Lumpkin, Brandi | 32:02.47 | 32:05.92 | 10:21 | Spotsylvania | VA | 4 F-18 to 25 |
| 53 | 172 | ROSS, LEAH | 32:00.48 | 32:06.59 | 10:21 | FRED | VA | 5 F-33 to 39 |
| 54 | 115 | Leake, Todd | 32:08.93 | 32:10.41 | 10:23 | Spotsylvania | VA | 6 M-40 to 98 |
| 55 | 199 | Stevens, Sherie | 32:17.58 | 32:24.90 | 10:27 | Fredericksburg | VA | 6 F-33 to 39 |
| 56 | 167 | RAMPEY, COURTNEY | 32:34.73 | 32:36.38 | 10:31 | FRED | VA | 5 F-18 to 25 |
| 57 | 147 | OLSON, CAROLINE | 32:40.98 | 32:46.82 | 10:34 | FRED | VA | 5 F-26 to 32 |
| 58 | 228 | Schoening, Justin | 32:48.85 | 32:49.39 | 10:35 | Lalisa | VA | 3 M-9 to 13 |
| 59 | 140 | MILLER, KAREN | 32:41.06 | 32:51.92 | 10:36 | STAFFORD | VA | 6 F-40 to 98 |
| 60 | 254 | Ennis, Nathan | 32:23.52 | 32:52.40 | 10:36 | SPOTSY | VA | 14 M-18 to 25 |
| 61 | 188 | Simms, Nicole | 32:24.23 | 32:53.04 | 10:36 | Spotsylvania | VA | 6 F-18 to 25 |
| 62 | 146 | OLIVER, DEEANN | 32:44.13 | 32:54.83 | 10:37 | STAFFORD | VA | 7 F-40 to 98 |
| 63 | 100 | Julian, Janae | 32:52.94 | 32:56.46 | 10:37 | Spotsylvania | VA | 7 F-33 to 39 |
| 64 | 107 | KENNEDY, TRACY | 32:47.21 | 32:57.37 | 10:38 | PARTLOW | VA | 8 F-40 to 98 |
| 65 | 80 | HILL, VIC | 32:48.69 | 32:59.82 | 10:38 | STAFFORD | VA | 7 M-40 to 98 |
| 66 | 164 | PUCETTI, TRISHA | 32:56.79 | 33:00.68 | 10:39 | FRED | VA | 2 F-14 to 17 |
| 67 | 163 | PUCETTI, MELISSA | 32:57.04 | 33:00.94 | 10:39 | FRED | VA | 8 F-33 to 39 |
| 68 | 43 | DEALE, KACIE | 32:55.51 | 33:04.59 | 10:40 | SPOTSYLVANIA | VA | 7 F-18 to 25 |
| 69 | 64 | GOVEA, YSABELL | 33:05.37 | 33:07.85 | 10:41 | FRED | VA | 8 F-18 to 25 |
| 70 | 75 | HARRISON, TORI | 33:05.06 | 33:07.94 | 10:41 | FRED | VA | 9 F-18 to 25 |
| 71 | 88 | HOWELL, LESHA | 32:57.76 | 33:14.48 | 10:43 | FREDERICKSBURG | VA | 9 F-40 to 98 |
| 72 | 68 | GRIM, DENISE | 32:56.78 | 33:14.63 | 10:43 | FRED | VA | 10 F-40 to 98 |
| 73 | 117 | LIM, MICHAEL | 32:53.39 | 33:16.98 | 10:44 | FRED | VA | 3 M-33 to 39 |
| 74 | 207 | Vasil, Patrick | 33:26.00 | 33:30.39 | 10:48 | Fredericksburg | VA | 4 M-26 to 32 |
| 75 | 239 | Stewart, Candi | 33:28.71 | 33:36.76 | 10:50 | SPOTSY | VA | 11 F-40 to 98 |
| 76 | 231 | Cline, Ashton | 33:42.29 | 33:54.88 | 10:56 | Fredericksburg | VA | 4 M-9 to 13 |
| 77 | 72 | HALSTEAD, MICHAEL | 33:32.51 | 33:55.93 | 10:56 | DUMFRIES | VA | 8 M-40 to 98 |
| 78 | 224 | Wolfe, Logan | 34:06.56 | 34:09.30 | 11:01 | Fredericksburg | VA | 3 F-14 to 17 |
| 79 | 13 | BRADFORD, KRISTEN | 34:15.36 | 34:29.94 | 11:07 | FRED | VA | 10 F-18 to 25 |
| 80 | 131 | MATTHEWS, MEGAN | 34:15.28 | 34:30.05 | 11:08 | FRED | VA | 11 F-18 to 25 |
| 81 | 103 | KELLY-MAARTENS, PHILIP | 31:47.55 | 34:52.82 | 11:15 | SPOTSYLVANIA | VA | 4 M-33 to 39 |
| 82 | 102 | KELLY-MAARTENS, ALEX | 31:46.40 | 34:53.02 | 11:15 | SPOTSY | VA | 9 F-33 to 39 |
| 83 | 143 | NEWSOME, PATRICIA CHRSTEN | 34:28.31 | 34:53.22 | 11:15 | FRED | VA | 6 F-26 to 32 |
| 84 | 178 | SCATENA, ANNMARIE | 34:45.46 | 34:57.26 | 11:16 | FRED | VA | 10 F-33 to 39 |
| 85 | 132 | Matthias, Myron | 34:43.43 | 34:59.42 | 11:17 | Fredericksburg | VA | 5 M-33 to 39 |
| 86 | 139 | MILETIC, VED | 34:54.99 | 35:00.65 | 11:17 | FRED | VA | 5 M-26 to 32 |
| 87 | 111 | Kilpatrick, Gina | 35:04.97 | 35:12.06 | 11:21 | Woodbridge | VA | 11 F-33 to 39 |
| 88 | 138 | MICKIE, KENNETH | 35:09.36 | 35:16.06 | 11:23 | FRED | VA | 6 M-33 to 39 |
| 89 | 171 | RODGERS, AMY | 35:18.15 | 35:23.02 | 11:25 | FRED | VA | 7 F-26 to 32 |
| 90 | 40 | Davis, Meadow | 35:11.27 | 35:26.43 | 11:26 | Fredericksburg | VA | 8 F-26 to 32 |
| 91 | 210 | Waters, Sharon | 35:29.22 | 35:36.21 | 11:29 | Fredericksburg | VA | 12 F-40 to 98 |
| 92 | 244 | Brown, Terri | 35:26.40 | 35:36.69 | 11:29 | Fredericksburg | VA | 13 F-40 to 98 |
| 93 | 120 | LORA, RAY | 35:50.93 | 36:08.34 | 11:39 | SPOTSY | VA | 9 M-40 to 98 |
| 94 | 204 | TRANTER, LINDA | 35:47.72 | 36:09.20 | 11:40 | 14 F-40 to 98 | ||
| 95 | 173 | ROYER, ANDY | 36:06.60 | 36:11.27 | 11:40 | FRED | VA | 7 M-33 to 39 |
| 96 | 190 | SOYKA, JOHN | 36:12.90 | 36:19.49 | 11:43 | FRED | VA | 10 M-40 to 98 |
| 97 | 57 | GIBSON, PATRICIA | 36:12.91 | 36:19.49 | 11:43 | FRED | VA | 15 F-40 to 98 |
| 98 | 112 | Klaniecki, Michael | 36:08.15 | 36:20.13 | 11:43 | fredericksburg | VA | 11 M-40 to 98 |
| 99 | 234 | Slanyhter, Jarred | 36:20.75 | 36:29.89 | 11:46 | Fredericksburg | VA | 15 M-18 to 25 |
| 100 | 256 | Gardner, Susan | 36:22.30 | 36:37.96 | 11:49 | SPOTSY | VA | 16 F-40 to 98 |
| 101 | 98 | JORDAN, TAHIRAH | 36:21.96 | 36:37.99 | 11:49 | FRED | VA | 17 F-40 to 98 |
| 102 | 10 | BOWER, JAMES | 36:21.27 | 36:43.30 | 11:51 | FRED | VA | 12 M-40 to 98 |
| 103 | 192 | SPENCER, JASON | 36:21.98 | 36:43.99 | 11:51 | FRED | VA | 8 M-33 to 39 |
| 104 | 71 | HALSTEAD, ALYSSA | 36:24.76 | 36:49.70 | 11:53 | DUMFRIES | VA | 18 F-40 to 98 |
| 105 | 11 | BOWER, SUSAN | 36:25.06 | 36:49.80 | 11:53 | FRED | VA | 19 F-40 to 98 |
| 106 | 189 | SMITH, JAMIE | 36:25.34 | 36:50.35 | 11:53 | TRIANGLE | VA | 20 F-40 to 98 |
| 107 | 87 | HOUSTON, SHARON | 36:42.57 | 36:52.54 | 11:54 | SPOTSY | VA | 21 F-40 to 98 |
| 108 | 86 | HOUSTON, KATHLEEN | 36:43.20 | 36:52.71 | 11:54 | HARRISONBURG | VA | 12 F-18 to 25 |
| 109 | 137 | MEADOWS, MARY | 36:53.61 | 36:57.40 | 11:55 | KING GEORGE | VA | 22 F-40 to 98 |
| 110 | 229 | Ann Wagner, Caron | 37:21.79 | 37:29.08 | 12:05 | SPOTSY | VA | 23 F-40 to 98 |
| 111 | 110 | KHAN, ILHAM | 37:26.67 | 37:34.35 | 12:07 | LORTON | VA | 24 F-40 to 98 |
| 112 | 109 | Khan, Adam | 37:27.11 | 37:34.67 | 12:07 | LORTON | VA | 5 M-9 to 13 |
| 113 | 12 | Bowers, Brittany | 38:07.87 | 38:10.78 | 12:19 | Blacksburg | VA | 13 F-18 to 25 |
| 114 | 93 | Irving, Dylan | 38:15.91 | 38:20.11 | 12:22 | Spotsylvania | VA | 16 M-18 to 25 |
| 115 | 123 | Lumpkin, Brittney | 38:16.18 | 38:20.12 | 12:22 | Spotsylvania | VA | 14 F-18 to 25 |
| 116 | 161 | Petrie, Emily | 38:20.39 | 38:35.54 | 12:27 | Partlow | VA | 15 F-18 to 25 |
| 117 | 203 | Tamillow, Daniela | 38:43.24 | 38:51.35 | 12:32 | locust grove | VA | 9 F-26 to 32 |
| 118 | 232 | Redding, Emily | 38:43.34 | 38:51.45 | 12:32 | Locust Grove | VA | 10 F-26 to 32 |
| 119 | 197 | Spindle, Ashley | 38:48.53 | 38:57.30 | 12:34 | Fredericksburg | VA | 11 F-26 to 32 |
| 120 | 242 | Conner, Juli | 38:51.71 | 39:14.28 | 12:39 | Fred | VA | 25 F-40 to 98 |
| 121 | 168 | RANDHAHN, TANYA | 38:51.89 | 39:14.45 | 12:39 | Fredericksburg | VA | 26 F-40 to 98 |
| 122 | 255 | Lord, Brittany | 39:07.14 | 39:16.32 | 12:40 | Bumpass | VA | 4 F-14 to 17 |
| 123 | 65 | GRAHAM, KATIE | 39:07.05 | 39:16.33 | 12:40 | 16 F-18 to 25 | ||
| 124 | 99 | Jovkovich, Jalina | 39:24.93 | 39:38.92 | 12:47 | Fredericksburg | VA | 27 F-40 to 98 |
| 125 | 61 | GOVEA, ETHAN | 39:45.32 | 39:49.16 | 12:51 | 1 M-99 to 99 | ||
| 126 | 240 | Duarte, Rosale | 39:51.41 | 40:10.28 | 12:57 | Fredericksburg | VA | 12 F-33 to 39 |
| 127 | 136 | McKeen, Susan | 40:05.52 | 40:25.53 | 13:02 | Fredericksburg | VA | 28 F-40 to 98 |
| 128 | 191 | SPENCER, AMANDA | 40:05.85 | 40:25.71 | 13:02 | FRED | VA | 13 F-33 to 39 |
| 129 | 134 | MCGINLEY, MICHELLE | 40:06.63 | 40:31.83 | 13:04 | STAFFORD | VA | 29 F-40 to 98 |
| 130 | 195 | Spina, Liam | 40:10.26 | 40:37.42 | 13:06 | Spotsylvania | VA | 8 M-14 to 17 |
| 131 | 194 | Spina, Gary | 40:10.18 | 40:37.46 | 13:06 | Spotsylvania | VA | 13 M-40 to 98 |
| 132 | 39 | Danielson, Valerie | 40:30.72 | 40:39.51 | 13:07 | Fredericksburg | VA | 12 F-26 to 32 |
| 133 | 155 | Payne, Theresa | 40:38.24 | 40:46.59 | 13:09 | Fredericksburg | VA | 30 F-40 to 98 |
| 134 | 150 | OVERTON, DANAE | 40:47.09 | 40:55.80 | 13:12 | RUTHER GLEN | VA | 13 F-26 to 32 |
| 135 | 20 | Carson, Christina | 40:45.42 | 41:05.47 | 13:15 | Woodford | VA | 31 F-40 to 98 |
| 136 | 35 | Colson, Mark | 40:55.90 | 41:10.39 | 13:17 | Spotsylvania | VA | 14 M-40 to 98 |
| 137 | 211 | Watkins, Amy | 41:04.70 | 41:28.63 | 13:23 | Spotsylvania | VA | 14 F-33 to 39 |
| 138 | 17 | Brown, Stephanie | 41:04.92 | 41:28.65 | 13:23 | Spotsylvania | VA | 15 F-33 to 39 |
| 139 | 69 | Guerrero, Ethel | 41:30.82 | 41:36.99 | 13:25 | King George | VA | 32 F-40 to 98 |
| 140 | 62 | GOVEA, LUCY | 41:35.17 | 41:38.97 | 13:26 | FRED | VA | 16 F-33 to 39 |
| 141 | 121 | Loughan, Melissa | 41:53.08 | 41:55.42 | 13:31 | Fredericksburg | VA | 33 F-40 to 98 |
| 142 | 185 | Shultz, Karen | 41:42.98 | 41:55.69 | 13:31 | Fred | VA | 34 F-40 to 98 |
| 143 | 114 | LAKINS, KELLY | 41:43.27 | 41:56.13 | 13:32 | FRED | VA | 35 F-40 to 98 |
| 144 | 212 | Wheeler, Donnie | 41:51.99 | 42:05.72 | 13:35 | Spotsylvania | VA | 15 M-40 to 98 |
| 145 | 162 | Pippin, Nicole | 42:04.98 | 42:10.29 | 13:36 | Fredericksburg | VA | 14 F-26 to 32 |
| 146 | 198 | Starbuck, Samantha | 42:05.02 | 42:10.45 | 13:36 | Chantilly | VA | 17 F-18 to 25 |
| 147 | 97 | JONES, NANCY | 43:07.75 | 43:22.22 | 13:59 | FREDERICKSBURG | VA | 36 F-40 to 98 |
| 148 | 96 | JONES, MATT | 43:04.18 | 43:22.48 | 13:59 | FREDERICKSBURG | VA | 16 M-40 to 98 |
| 149 | 53 | Fiore Klaniecki, Lisa | 43:18.60 | 43:31.62 | 14:02 | fredericksburg | VA | 37 F-40 to 98 |
| 150 | 243 | Goodwin, Ryan | 43:20.79 | 43:37.55 | 14:04 | fredericksburg | VA | 6 M-9 to 13 |
| 151 | 60 | Goodwin, Stephen | 43:19.67 | 43:37.72 | 14:04 | Fred | VA | 17 M-40 to 98 |
| 152 | 245 | Brown, William | 43:45.23 | 43:55.32 | 14:10 | Fredericksburg | VA | 18 M-40 to 98 |
| 153 | 200 | STONE, CRYSTAL | 43:45.14 | 44:10.80 | 14:15 | SPOTSY | VA | 17 F-33 to 39 |
| 154 | 79 | HICKEY, AMANDA | 43:56.10 | 44:16.97 | 14:17 | THORNBURG | VA | 18 F-33 to 39 |
| 155 | 28 | CLINE, ERIN | 44:16.60 | 44:30.37 | 14:21 | FRED | VA | 19 F-33 to 39 |
| 156 | 174 | russell, karen | 44:16.66 | 44:30.56 | 14:21 | spotsylvania | VA | 38 F-40 to 98 |
| 157 | 49 | EVERLY, MAUREEN | 44:57.77 | 45:09.25 | 14:34 | SPOTSY | VA | 39 F-40 to 98 |
| 158 | 37 | COOPER, CRYSTAL | 45:02.33 | 45:17.38 | 14:36 | SPOTSYLVANIA | VA | 20 F-33 to 39 |
| 159 | 90 | Ingalls, Danielle | 45:14.05 | 45:19.09 | 14:37 | Spotsylvania | VA | 18 F-18 to 25 |
| 160 | 92 | Ingalls, Kim | 45:14.01 | 45:19.10 | 14:37 | Spotsylvania | VA | 40 F-40 to 98 |
| 161 | 252 | Sperry, Jordan | 45:28.45 | 45:42.42 | 14:45 | SPOTSY | VA | 5 F-14 to 17 |
| 162 | 21 | Catlett, Brandy | 45:48.15 | 45:51.89 | 14:47 | Spotsylvania | VA | 19 F-18 to 25 |
| 163 | 91 | Ingalls, Keri | 45:47.83 | 45:52.35 | 14:48 | Spotsylvania | VA | 6 F-14 to 17 |
| 164 | 22 | Catlett, Elania | 45:48.93 | 45:52.37 | 14:48 | Partlow | VA | 7 F-14 to 17 |
| 165 | 45 | DeMatteo, Emily | 46:27.12 | 46:40.86 | 15:03 | Partlow | VA | 8 F-14 to 17 |
| 166 | 46 | DeMatteo, Sara | 46:27.22 | 46:41.00 | 15:04 | Partlow | VA | 20 F-18 to 25 |
| 167 | 70 | GUERRIERI, ERIN | 46:25.12 | 46:45.90 | 15:05 | THORNBURG | VA | 15 F-26 to 32 |
| 168 | 227 | Parker, Jenny | 46:29.39 | 46:46.17 | 15:05 | SPOTSY | VA | 41 F-40 to 98 |
| 169 | 151 | PARKER, JENNIFER | 46:29.52 | 46:46.35 | 15:05 | FRED | VA | 16 F-26 to 32 |
| 170 | 206 | VADEN, SHAWN | 46:39.83 | 46:58.82 | 15:09 | MECHANICSVILLE | VA | 42 F-40 to 98 |
| 171 | 51 | FIELDING, CATHY | 46:40.48 | 46:59.12 | 15:09 | FRED | VA | 43 F-40 to 98 |
| 172 | 186 | SIEFKER, JEREMY | 47:16.48 | 47:35.89 | 15:21 | SPOTSYLVANIA | VA | 9 M-33 to 39 |
| 173 | 154 | Payne, Lindsay | 0:00.00 | 48:07.26 | 15:31 | Fredericksburg | VA | 21 F-18 to 25 |
| 174 | 48 | EUBANKS, SUSAN | 48:54.83 | 49:01.15 | 15:49 | SPOTSY | VA | 44 F-40 to 98 |
| 175 | 220 | WILLIAMS, APRIL | 48:41.74 | 49:02.76 | 15:49 | FRED | VA | 21 F-33 to 39 |
| 176 | 33 | Colson, Jonathan | 48:55.11 | 49:09.37 | 15:51 | Spotsylvania | VA | 9 M-14 to 17 |
| 177 | 31 | Colson, Christine | 48:54.55 | 49:09.38 | 15:51 | Spotsylvania | VA | 9 F-14 to 17 |
| 178 | 15 | Brock, Andrea | 49:10.82 | 49:24.04 | 15:56 | Spotsylvania | VA | 22 F-18 to 25 |
| 179 | 55 | Foster, Taylor | 49:11.59 | 49:24.11 | 15:56 | Spotsylvania | VA | 10 F-14 to 17 |
| 180 | 16 | Brock, Kirsten | 49:11.12 | 49:24.13 | 15:56 | Lynchburg | VA | 23 F-18 to 25 |
| 181 | 183 | Sharpe, Allyson | 49:11.90 | 49:24.20 | 15:56 | Spotsylvania | VA | 24 F-18 to 25 |
| 182 | 108 | Ketcher, Elizabeth | 49:23.06 | 49:45.97 | 16:03 | South Riding | VA | 25 F-18 to 25 |
| 183 | 201 | Stott, Lorrie | 50:28.46 | 50:40.38 | 16:21 | Spotsylvania | VA | 45 F-40 to 98 |
| 184 | 237 | Kauffman, Vickie | 51:01.50 | 51:12.37 | 16:31 | SPOTSY | VA | 22 F-33 to 39 |
| 185 | 18 | BURGESS, JENNIFER | 51:00.92 | 51:12.46 | 16:31 | FRED | VA | 23 F-33 to 39 |
| 186 | 118 | Lindner, Julie Ann | 51:17.94 | 51:35.15 | 16:38 | Spotsylvania | VA | 46 F-40 to 98 |
| 187 | 157 | Perret Dowd, Leigh | 51:17.58 | 51:35.22 | 16:38 | Bumpass | VA | 47 F-40 to 98 |
| 188 | 235 | Brigasti, Tazman | 51:38.69 | 51:51.59 | 16:44 | Fredericksburg | VA | 10 M-14 to 17 |
| 189 | 77 | Hefley-Ketcher, Tanya | 51:32.04 | 51:54.94 | 16:45 | South Riding | VA | 48 F-40 to 98 |
| 190 | 6 | Bernth, Laura | 51:32.73 | 51:55.66 | 16:45 | New Bern | NE | 24 F-33 to 39 |
| 191 | 236 | Briganti, Joni | 51:43.38 | 51:56.61 | 16:45 | SPOTSY | VA | 49 F-40 to 98 |
| 192 | 81 | HOCKADAY, ERIN | 52:30.88 | 52:32.47 | 16:57 | fredericksburg | VA | 11 F-14 to 17 |
| 193 | 119 | Lockhart, Samantha | 52:31.20 | 52:42.33 | 17:00 | Henrico | VA | 26 F-18 to 25 |
| 194 | 233 | Bowles, Cameron | 52:31.31 | 52:42.40 | 17:00 | Fredericksburg | VA | 27 F-18 to 25 |
| 195 | 3 | Arringtong, Nicole | 53:33.35 | 53:50.24 | 17:22 | Stafford | VA | 50 F-40 to 98 |
| 196 | 130 | MATHENA, SARAH | 53:33.13 | 53:50.28 | 17:22 | RUTHER GLEN | VA | 25 F-33 to 39 |
| 197 | 19 | BYRNE, STEPHANIE | 53:33.23 | 53:50.35 | 17:22 | SPOTSY | VA | 17 F-26 to 32 |
| 198 | 5 | BEEKER, JOHN | 54:10.06 | 54:19.49 | 17:31 | KING GEORGE | VA | 6 M-26 to 32 |
| 199 | 113 | Kuhlman, Katie | 53:55.17 | 54:21.63 | 17:32 | Fredericksburg | VA | 18 F-26 to 32 |
| 200 | 9 | BOWER, HAMISH | 54:02.02 | 54:27.52 | 17:34 | FRED | VA | 11 M-14 to 17 |
| 201 | 196 | Spina, Michelle | 54:02.33 | 54:28.58 | 17:34 | Spotsylvania | VA | 51 F-40 to 98 |
| 202 | 182 | SCOTT, SUSAN | 54:50.90 | 55:12.06 | 17:48 | RUTHER GLEN | VA | 26 F-33 to 39 |
| 203 | 95 | JOHNSON, CINDY | 54:50.57 | 55:12.39 | 17:48 | FRED | VA | |
| 204 | 219 | WILKERSON, KATHLEEN | 56:35.92 | 56:48.30 | 18:19 | FRED | VA | 1 F-9 to 13 |
| 205 | 187 | Simms, Holly | 57:16.32 | 57:49.48 | 18:39 | Spotsylvania | VA | 52 F-40 to 98 |
| 206 | 27 | Clifford, Kristine | 57:34.15 | 58:00.57 | 18:43 | Spotsylvania | VA | 53 F-40 to 98 |
| 207 | 34 | Colson, Judith | 57:33.91 | 58:00.59 | 18:43 | Spotsylvania | VA | 54 F-40 to 98 |
| 208 | 32 | Colson, Jeromy | 57:34.08 | 58:00.75 | 18:43 | Spotsylvania | VA | 17 M-18 to 25 |
| 209 | 41 | DAVIS, NETA | 58:15.08 | 58:22.62 | 18:50 | MINERAL | VA | 27 F-33 to 39 |
| 210 | 29 | CLORE, SHAWN | 58:19.61 | 58:34.37 | 18:54 | SPOTSYLVANI | VA | 10 M-33 to 39 |
| 211 | 59 | GOODWIN, CLARISSA | 58:25.16 | 58:34.61 | 18:54 | FRED | VA | 55 F-40 to 98 |